Hanjin Buchanan — 3FHB4 — position and weather

sailwx.info

Track history (hours):
 
Tides and Currents Weather Stations Pressure Air Temp Water Temp Dewpoint Dewpoint Depression Visibility Wind Speed Wind Dir Waves Ship Positions

Hanjin Buchanan

Last reported at 2014-Dec-02 18:07 UTC. Time now 2014-Dec-20 00:03 UTC.
Position N 36°01' W 005°11'.
Warning: this ship's position is 17 days out of date.

Length 255 m; draft 14.7 m.

Type: Cargo ship. MMSI: 357568000.

Date/timePositionNaut miles runAvg speedWind from/ knotsBaromVisibWave heightAir tempDewpointWater temp
2014-Dec-02 18:07N 36°01' W 005°11'712.9
2014-Dec-02 17:33N 36°01' W 005°20'7 0.7
2014-Dec-02 08:27N 36°07' W 005°22'0 0.1
2014-Dec-02 07:30N 36°07' W 005°22'0 0.1
2014-Dec-02 05:30N 36°07' W 005°22'0 0.0
2014-Dec-01 22:28N 36°07' W 005°22'2 2.2
2014-Dec-01 21:23N 36°06' W 005°20'4 4.7
2014-Dec-01 20:33N 36°07' W 005°16'1 0.8
2014-Dec-01 19:33N 36°07' W 005°16'6 6.3
2014-Dec-01 18:33N 36°02' W 005°20'  
2014-Nov-27 02:32N 50°30' W 000°05'1111.1
2014-Nov-27 01:32N 50°33' E 000°12'1010.5
2014-Nov-27 00:32N 50°36' E 000°28'10 9.9
2014-Nov-26 23:33N 50°40' E 000°42'1110.9
2014-Nov-26 22:33N 50°47' E 000°55'1312.7
2014-Nov-26 21:33N 50°55' E 001°10'1413.9
2014-Nov-26 20:33N 51°04' E 001°27'1313.1
2014-Nov-26 19:33N 51°12' E 001°43'1211.5
2014-Nov-26 18:33N 51°22' E 001°53'1010.4
2014-Nov-26 17:33N 51°31' E 002°03'1010.0
2014-Nov-26 16:33N 51°38' E 002°13'10310.9
2014-Nov-26 07:08N 53°19' E 002°47'37110.7
2014-Nov-24 20:33N 57°48' E 010°19'1110.7
2014-Nov-24 19:33N 57°48' E 010°39'8 7.2
2014-Nov-24 18:24N 57°40' E 010°46'1210.8
2014-Nov-24 17:15N 57°32' E 011°04'811.4
2014-Nov-24 16:33N 57°30' E 011°18'1110.8
2014-Nov-24 15:33N 57°22' E 011°30'171 9.5
2014-Nov-23 21:33N 54°30' E 011°31'1111.3
2014-Nov-23 20:33N 54°26' E 011°49'1211.6
2014-Nov-23 19:33N 54°26' E 012°09'1010.1
2014-Nov-23 18:33N 54°36' E 012°16'56 9.3
2014-Nov-23 12:31N 54°60' E 013°44'1211.7
2014-Nov-23 11:32N 55°04' E 014°03'1111.3
2014-Nov-23 10:33N 55°12' E 014°15'1211.3
2014-Nov-23 09:29N 55°22' E 014°29'1111.3
2014-Nov-23 08:32N 55°28' E 014°43'1211.6
2014-Nov-23 07:33N 55°34' E 015°01'1411.7
2014-Nov-23 06:22N 55°40' E 015°23'  
Track history (hours):
 
Tides and Currents Weather Stations Pressure Air Temp Water Temp Dewpoint Dewpoint Depression Visibility Wind Speed Wind Dir Waves Ship Positions

Hanjin Buchanan

Last reported at 2014-Dec-02 18:07 UTC. Time now 2014-Dec-20 00:03 UTC.
Position N 36°01' W 005°11'.
Warning: this ship's position is 17 days out of date.

Length 255 m; draft 14.7 m.

Type: Cargo ship. MMSI: 357568000.

Date/timePositionNaut miles runAvg speedWind from/ knotsBaromVisibWave heightAir tempDewpointWater temp
2014-Dec-02 18:07N 36°01' W 005°11'712.9
2014-Dec-02 17:33N 36°01' W 005°20'7 0.7
2014-Dec-02 08:27N 36°07' W 005°22'0 0.1
2014-Dec-02 07:30N 36°07' W 005°22'0 0.1
2014-Dec-02 05:30N 36°07' W 005°22'0 0.0
2014-Dec-01 22:28N 36°07' W 005°22'2 2.2
2014-Dec-01 21:23N 36°06' W 005°20'4 4.7
2014-Dec-01 20:33N 36°07' W 005°16'1 0.8
2014-Dec-01 19:33N 36°07' W 005°16'6 6.3
2014-Dec-01 18:33N 36°02' W 005°20'  
2014-Nov-27 02:32N 50°30' W 000°05'1111.1
2014-Nov-27 01:32N 50°33' E 000°12'1010.5
2014-Nov-27 00:32N 50°36' E 000°28'10 9.9
2014-Nov-26 23:33N 50°40' E 000°42'1110.9
2014-Nov-26 22:33N 50°47' E 000°55'1312.7
2014-Nov-26 21:33N 50°55' E 001°10'1413.9
2014-Nov-26 20:33N 51°04' E 001°27'1313.1
2014-Nov-26 19:33N 51°12' E 001°43'1211.5
2014-Nov-26 18:33N 51°22' E 001°53'1010.4
2014-Nov-26 17:33N 51°31' E 002°03'1010.0
2014-Nov-26 16:33N 51°38' E 002°13'10310.9
2014-Nov-26 07:08N 53°19' E 002°47'37110.7
2014-Nov-24 20:33N 57°48' E 010°19'1110.7
2014-Nov-24 19:33N 57°48' E 010°39'8 7.2
2014-Nov-24 18:24N 57°40' E 010°46'1210.8
2014-Nov-24 17:15N 57°32' E 011°04'811.4
2014-Nov-24 16:33N 57°30' E 011°18'1110.8
2014-Nov-24 15:33N 57°22' E 011°30'171 9.5
2014-Nov-23 21:33N 54°30' E 011°31'1111.3
2014-Nov-23 20:33N 54°26' E 011°49'1211.6
2014-Nov-23 19:33N 54°26' E 012°09'1010.1
2014-Nov-23 18:33N 54°36' E 012°16'56 9.3
2014-Nov-23 12:31N 54°60' E 013°44'1211.7
2014-Nov-23 11:32N 55°04' E 014°03'1111.3
2014-Nov-23 10:33N 55°12' E 014°15'1211.3
2014-Nov-23 09:29N 55°22' E 014°29'1111.3
2014-Nov-23 08:32N 55°28' E 014°43'1211.6
2014-Nov-23 07:33N 55°34' E 015°01'1411.7
2014-Nov-23 06:22N 55°40' E 015°23'  

Dump ship's entire track history